WBANNO,USDM_WEEK,LONGITUDE,LATITUDE,SMVWC_5_CM_MEAN,SMANOM_5_CM_MEAN,SMPERC_5_CM_30COUNTS,SMPERC_5_CM_70COUNTS,SMVWC_10_CM_MEAN,SMANOM_10_CM_MEAN,SMPERC_10_CM_30COUNTS,SMPERC_10_CM_70COUNTS,SMVWC_20_CM_MEAN,SMANOM_20_CM_MEAN,SMPERC_20_CM_30COUNTS,SMPERC_20_CM_70COUNTS,SMVWC_50_CM_MEAN,SMANOM_50_CM_MEAN,SMPERC_50_CM_30COUNTS,SMPERC_50_CM_70COUNTS,SMVWC_100_CM_MEAN,SMANOM_100_CM_MEAN,SMPERC_100_CM_30COUNTS,SMPERC_100_CM_70COUNTS,SMVWC_TOP_CM_MEAN,SMANOM_TOP_CM_MEAN,SMPERC_TOP_CM_30COUNTS,SMPERC_TOP_CM_70COUNTS,SMVWC_COLUMN_CM_MEAN,SMANOM_COLUMN_CM_MEAN,SMPERC_COLUMN_CM_30COUNTS,SMPERC_COLUMN_CM_70COUNTS
53151,20100208,-117.19,33.44,,,,,,,,,,,,,,,,,,,,,,,,,,,,
53151,20100209,-117.19,33.44,,,,,,,,,,,,,,,,,,,,,,,,,,,,
53151,20100210,-117.19,33.44,,,,,,,,,,,,,,,,,,,,,,,,,,,,
53151,20100211,-117.19,33.44,,,,,,,,,,,,,,,,,,,,,,,,,,,,
53151,20100212,-117.19,33.44,,,,,,,,,,,,,,,,,,,,,,,,,,,,
53151,20100213,-117.19,33.44,,,,,,,,,,,,,,,,,,,,,,,,,,,,
53151,20100214,-117.19,33.44,0.301,1.37,0,1,0.294,1.24,0,1,,,,,,,,,,,,,0.298,1.31,0,1,,,,
53151,20100215,-117.19,33.44,0.301,1.34,0,1,0.297,1.26,0,1,,,,,,,,,,,,,0.299,1.3,0,1,,,,
53151,20100216,-117.19,33.44,0.301,1.31,0,1,0.301,1.3,0,1,,,,,,,,,,,,,0.301,1.29,0,1,,,,
53151,20100217,-117.19,33.44,0.295,1.21,0,1,0.3,1.22,0,1,,,,,,,,,,,,,0.298,1.2,0,1,,,,
53151,20100218,-117.19,33.44,0.287,1.07,0,1,0.294,1.08,0,1,,,,,,,,,,,,,0.291,1.06,0,1,,,,
53151,20100219,-117.19,33.44,0.28,0.95,0,1,0.29,0.97,0,1,,,,,,,,,,,,,0.285,0.95,0,1,,,,
53151,20100220,-117.19,33.44,0.272,0.83,0,1,0.286,0.88,0,1,,,,,,,,,,,,,0.279,0.85,0,1,,,,
53151,20100221,-117.19,33.44,0.273,0.81,0,1,0.287,0.86,0,1,,,,,,,,,,,,,0.28,0.83,0,1,,,,
53151,20100222,-117.19,33.44,0.274,0.8,0,1,0.287,0.84,0,1,,,,,,,,,,,,,0.281,0.82,0,1,,,,
53151,20100223,-117.19,33.44,0.279,0.83,0,1,0.29,0.87,0,1,,,,,,,,,,,,,0.285,0.86,0,1,,,,
53151,20100224,-117.19,33.44,0.282,0.84,0,1,0.292,0.88,0,1,,,,,,,,,,,,,0.287,0.87,0,1,,,,
53151,20100225,-117.19,33.44,0.285,0.86,0,1,0.293,0.89,0,1,,,,,,,,,,,,,0.289,0.88,0,1,,,,
53151,20100226,-117.19,33.44,0.288,0.88,0,1,0.295,0.9,0,1,,,,,,,,,,,,,0.291,0.9,0,1,,,,
53151,20100227,-117.19,33.44,0.292,0.9,0,1,0.296,0.91,0,1,,,,,,,,,,,,,0.294,0.92,0,1,,,,
53151,20100228,-117.19,33.44,0.296,0.94,0,1,0.301,0.95,0,1,,,,,,,,,,,,,0.298,0.96,0,1,,,,
53151,20100301,-117.19,33.44,0.3,0.96,0,1,0.304,0.99,0,1,,,,,,,,,,,,,0.302,0.99,0,1,,,,
53151,20100302,-117.19,33.44,0.299,0.94,0,1,0.303,0.97,0,1,,,,,,,,,,,,,0.301,0.97,0,1,,,,
53151,20100303,-117.19,33.44,0.299,0.94,0,1,0.304,0.96,0,1,,,,,,,,,,,,,0.301,0.97,0,1,,,,
53151,20100304,-117.19,33.44,0.299,0.95,0,1,0.304,0.96,0,1,,,,,,,,,,,,,0.302,0.98,0,1,,,,
53151,20100305,-117.19,33.44,0.299,0.96,0,1,0.305,0.96,0,1,,,,,,,,,,,,,0.302,0.99,0,1,,,,
53151,20100306,-117.19,33.44,0.3,0.98,0,1,0.305,0.97,0,1,,,,,,,,,,,,,0.302,1.01,0,1,,,,
53151,20100307,-117.19,33.44,0.294,0.93,0,1,0.3,0.9,0,1,,,,,,,,,,,,,0.297,0.94,0,1,,,,
53151,20100308,-117.19,33.44,0.292,0.93,0,1,0.298,0.88,0,1,,,,,,,,,,,,,0.295,0.93,0,1,,,,
53151,20100309,-117.19,33.44,0.291,0.94,0,1,0.297,0.87,0,1,,,,,,,,,,,,,0.294,0.93,0,1,,,,
53151,20100310,-117.19,33.44,0.29,0.94,0,1,0.296,0.86,0,1,,,,,,,,,,,,,0.293,0.93,0,1,,,,
53151,20100311,-117.19,33.44,0.289,0.94,0,1,0.295,0.85,0,1,,,,,,,,,,,,,0.292,0.92,0,1,,,,
53151,20100312,-117.19,33.44,0.288,0.93,0,1,0.294,0.84,0,1,,,,,,,,,,,,,0.291,0.92,0,1,,,,
53151,20100313,-117.19,33.44,0.287,0.92,0,1,0.293,0.84,0,1,,,,,,,,,,,,,0.29,0.9,0,1,,,,
53151,20100314,-117.19,33.44,0.282,0.87,0,1,0.291,0.8,0,1,,,,,,,,,,,,,0.287,0.86,0,1,,,,
53151,20100315,-117.19,33.44,0.275,0.79,0,1,0.287,0.74,0,1,,,,,,,,,,,,,0.281,0.79,0,1,,,,
53151,20100316,-117.19,33.44,0.269,0.71,0,0.988,0.284,0.69,0,1,,,,,,,,,,,,,0.276,0.72,0,1,,,,
53151,20100317,-117.19,33.44,0.262,0.63,0,0.899,0.281,0.64,0,1,,,,,,,,,,,,,0.271,0.65,0,0.952,,,,
53151,20100318,-117.19,33.44,0.256,0.56,0,0.756,0.277,0.6,0,0.976,,,,,,,,,,,,,0.267,0.59,0,0.821,,,,
53151,20100319,-117.19,33.44,0.249,0.49,0,0.613,0.274,0.54,0,0.839,,,,,,,,,,,,,0.261,0.52,0,0.679,,,,
53151,20100320,-117.19,33.44,0.242,0.42,0,0.47,0.27,0.49,0,0.696,,,,,,,,,,,,,0.256,0.46,0,0.536,,,,
53151,20100321,-117.19,33.44,0.236,0.37,0,0.327,0.266,0.44,0,0.554,,,,,,,,,,,,,0.251,0.4,0,0.393,,,,
53151,20100322,-117.19,33.44,0.229,0.31,0,0.185,0.262,0.38,0,0.411,,,,,,,,,,,,,0.246,0.35,0,0.25,,,,
53151,20100323,-117.19,33.44,0.223,0.26,0,0.054,0.258,0.33,0,0.268,,,,,,,,,,,,,0.24,0.29,0,0.107,,,,
53151,20100324,-117.19,33.44,0.218,0.22,0,0,0.254,0.29,0,0.125,,,,,,,,,,,,,0.236,0.25,0,0.012,,,,
53151,20100325,-117.19,33.44,0.213,0.18,0,0,0.251,0.25,0,0.006,,,,,,,,,,,,,0.232,0.21,0,0,,,,
53151,20100326,-117.19,33.44,0.209,0.15,0,0,0.248,0.22,0,0,,,,,,,,,,,,,0.229,0.18,0,0,,,,
53151,20100327,-117.19,33.44,0.205,0.13,0,0,0.246,0.2,0,0,,,,,,,,,,,,,0.226,0.16,0,0,,,,
53151,20100328,-117.19,33.44,0.202,0.11,0,0,0.244,0.18,0,0,,,,,,,,,,,,,0.223,0.15,0,0,,,,
53151,20100329,-117.19,33.44,0.199,0.1,0,0,0.243,0.17,0,0,,,,,,,,,,,,,0.221,0.14,0,0,,,,
53151,20100330,-117.19,33.44,0.195,0.08,0,0,0.241,0.17,0,0,,,,,,,,,,,,,0.218,0.12,0,0,,,,
53151,20100331,-117.19,33.44,0.192,0.07,0,0,0.24,0.15,0,0,,,,,,,,,,,,,0.216,0.11,0,0,,,,
53151,20100401,-117.19,33.44,0.188,0.05,0,0,0.238,0.14,0,0,,,,,,,,,,,,,0.213,0.09,0,0,,,,
53151,20100402,-117.19,33.44,0.184,0.03,0,0,0.236,0.12,0,0,,,,,,,,,,,,,0.21,0.07,0,0,,,,
53151,20100403,-117.19,33.44,0.181,0.02,0,0,0.234,0.1,0,0,,,,,,,,,,,,,0.207,0.05,0,0,,,,
53151,20100404,-117.19,33.44,0.178,0.01,0,0,0.232,0.09,0,0,,,,,,,,,,,,,0.205,0.04,0,0,,,,
53151,20100405,-117.19,33.44,0.175,0.01,0,0,0.231,0.08,0,0,,,,,,,,,,,,,0.203,0.03,0,0,,,,
53151,20100406,-117.19,33.44,0.179,0.09,0,0.095,0.234,0.15,0,0.101,,,,,,,,,,,,,0.206,0.11,0,0.095,,,,
53151,20100407,-117.19,33.44,0.187,0.22,0,0.238,0.238,0.25,0,0.244,,,,,,,,,,,,,0.212,0.24,0,0.238,,,,
53151,20100408,-117.19,33.44,0.194,0.35,0,0.381,0.241,0.34,0,0.387,,,,,,,,,,,,,0.217,0.35,0,0.381,,,,
53151,20100409,-117.19,33.44,0.2,0.46,0,0.524,0.243,0.4,0,0.53,,,,,,,,,,,,,0.222,0.45,0,0.524,,,,
53151,20100410,-117.19,33.44,0.204,0.55,0,0.667,0.245,0.45,0,0.667,,,,,,,,,,,,,0.224,0.52,0,0.667,,,,
53151,20100411,-117.19,33.44,0.207,0.62,0,0.804,0.245,0.48,0,0.738,,,,,,,,,,,,,0.226,0.58,0,0.786,,,,
53151,20100412,-117.19,33.44,0.21,0.68,0,0.857,0.246,0.51,0,0.75,,,,,,,,,,,,,0.228,0.63,0,0.792,,,,
53151,20100413,-117.19,33.44,0.222,0.9,0,0.905,0.253,0.67,0,0.792,,,,,,,,,,,,,0.238,0.83,0,0.839,,,,
53151,20100414,-117.19,33.44,0.229,1.04,0,0.905,0.257,0.76,0,0.792,,,,,,,,,,,,,0.243,0.94,0,0.839,,,,
53151,20100415,-117.19,33.44,0.235,1.17,0,0.905,0.261,0.86,0,0.792,,,,,,,,,,,,,0.248,1.05,0,0.839,,,,
53151,20100416,-117.19,33.44,0.241,1.29,0,0.905,0.265,0.96,0,0.792,,,,,,,,,,,,,0.253,1.17,0,0.839,,,,
53151,20100417,-117.19,33.44,0.248,1.42,0,0.905,0.27,1.08,0,0.798,,,,,,,,,,,,,0.259,1.29,0,0.839,,,,
53151,20100418,-117.19,33.44,0.254,1.55,0,0.911,0.274,1.19,0,0.869,,,,,,,,,,,,,0.264,1.41,0,0.863,,,,
53151,20100419,-117.19,33.44,0.261,1.67,0,1,0.278,1.29,0,1,,,,,,,,,,,,,0.269,1.53,0,1,,,,
53151,20100420,-117.19,33.44,0.251,1.55,0,1,0.27,1.16,0,1,,,,,,,,,,,,,0.26,1.4,0,1,,,,
53151,20100421,-117.19,33.44,0.242,1.45,0,1,0.264,1.06,0,1,,,,,,,,,,,,,0.253,1.31,0,1,,,,
53151,20100422,-117.19,33.44,0.235,1.37,0,1,0.259,0.99,0,1,,,,,,,,,,,,,0.247,1.25,0,1,,,,
53151,20100423,-117.19,33.44,0.24,1.49,0,1,0.263,1.1,0,1,,,,,,,,,,,,,0.251,1.38,0,1,,,,
53151,20100424,-117.19,33.44,0.245,1.61,0,1,0.265,1.18,0,1,,,,,,,,,,,,,0.255,1.49,0,1,,,,
53151,20100425,-117.19,33.44,0.249,1.71,0,1,0.268,1.27,0,1,,,,,,,,,,,,,0.258,1.61,0,1,,,,
53151,20100426,-117.19,33.44,0.252,1.81,0,1,0.27,1.36,0,1,,,,,,,,,,,,,0.261,1.71,0,1,,,,
53151,20100427,-117.19,33.44,0.256,1.91,0,1,0.272,1.44,0,1,,,,,,,,,,,,,0.264,1.81,0,1,,,,
53151,20100428,-117.19,33.44,0.259,2,0,1,0.274,1.51,0,1,,,,,,,,,,,,,0.267,1.91,0,1,,,,
53151,20100429,-117.19,33.44,0.262,2.08,0,1,0.275,1.56,0,1,,,,,,,,,,,,,0.269,1.98,0,1,,,,
53151,20100430,-117.19,33.44,0.253,1.96,0,1,0.268,1.43,0,1,,,,,,,,,,,,,0.26,1.86,0,1,,,,
53151,20100501,-117.19,33.44,0.245,1.87,0,1,0.261,1.33,0,1,,,,,,,,,,,,,0.253,1.75,0,1,,,,
53151,20100502,-117.19,33.44,0.238,1.77,0,1,0.255,1.23,0,1,,,,,,,,,,,,,0.246,1.64,0,1,,,,
53151,20100503,-117.19,33.44,0.231,1.68,0,1,0.25,1.14,0,1,,,,,,,,,,,,,0.24,1.54,0,1,,,,
53151,20100504,-117.19,33.44,0.224,1.58,0,1,0.245,1.06,0,1,,,,,,,,,,,,,0.234,1.44,0,1,,,,
53151,20100505,-117.19,33.44,0.218,1.48,0,1,0.241,0.99,0,1,,,,,,,,,,,,,0.229,1.34,0,1,,,,
53151,20100506,-117.19,33.44,0.212,1.37,0,1,0.237,0.92,0,1,,,,,,,,,,,,,0.224,1.24,0,1,,,,
53151,20100507,-117.19,33.44,0.205,1.25,0,1,0.234,0.87,0,1,,,,,,,,,,,,,0.22,1.15,0,1,,,,
53151,20100508,-117.19,33.44,0.199,1.12,0,1,0.232,0.81,0,1,,,,,,,,,,,,,0.215,1.04,0,1,,,,
53151,20100509,-117.19,33.44,0.193,0.99,0,1,0.229,0.76,0,1,,,,,,,,,,,,,0.211,0.94,0,1,,,,
53151,20100510,-117.19,33.44,0.186,0.85,0,0.887,0.225,0.68,0,0.905,,,,,,,,,,,,,0.206,0.82,0,0.893,,,,
53151,20100511,-117.19,33.44,0.18,0.72,0,0.744,0.222,0.61,0,0.774,,,,,,,,,,,,,0.201,0.71,0,0.75,,,,
53151,20100512,-117.19,33.44,0.174,0.62,0,0.601,0.219,0.55,0,0.631,,,,,,,,,,,,,0.197,0.62,0,0.607,,,,
53151,20100513,-117.19,33.44,0.17,0.53,0,0.458,0.216,0.48,0,0.488,,,,,,,,,,,,,0.193,0.53,0,0.464,,,,
53151,20100514,-117.19,33.44,0.166,0.46,0,0.315,0.213,0.42,0,0.345,,,,,,,,,,,,,0.189,0.46,0,0.321,,,,
53151,20100515,-117.19,33.44,0.162,0.39,0,0.173,0.21,0.37,0,0.202,,,,,,,,,,,,,0.186,0.39,0,0.179,,,,
53151,20100516,-117.19,33.44,0.159,0.34,0,0.03,0.208,0.33,0,0.06,,,,,,,,,,,,,0.184,0.34,0,0.036,,,,
53151,20100517,-117.19,33.44,0.157,0.3,0,0,0.207,0.3,0,0.012,,,,,,,,,,,,,0.182,0.3,0,0,,,,
53151,20100518,-117.19,33.44,0.153,0.24,0.006,0,0.204,0.26,0,0,,,,,,,,,,,,,0.179,0.24,0,0,,,,
53151,20100519,-117.19,33.44,0.151,0.21,0.006,0,0.202,0.22,0,0,,,,,,,,,,,,,0.176,0.21,0,0,,,,
53151,20100520,-117.19,33.44,0.149,0.2,0.006,0,0.201,0.2,0,0,,,,,,,,,,,,,0.175,0.18,0,0,,,,
53151,20100521,-117.19,33.44,0.148,0.19,0.006,0,0.2,0.19,0,0,,,,,,,,,,,,,0.174,0.17,0,0,,,,
53151,20100522,-117.19,33.44,0.146,0.17,0.006,0,0.199,0.17,0,0,,,,,,,,,,,,,0.172,0.15,0,0,,,,
53151,20100523,-117.19,33.44,0.144,0.14,0.006,0,0.197,0.15,0,0,,,,,,,,,,,,,0.171,0.12,0,0,,,,
53151,20100524,-117.19,33.44,0.142,0.13,0.006,0,0.196,0.12,0,0,,,,,,,,,,,,,0.169,0.09,0,0,,,,
53151,20100525,-117.19,33.44,0.142,0.14,0,0,0.195,0.13,0,0,,,,,,,,,,,,,0.169,0.1,0,0,,,,
53151,20100526,-117.19,33.44,0.141,0.13,0,0,0.195,0.13,0,0,,,,,,,,,,,,,0.168,0.09,0,0,,,,
53151,20100527,-117.19,33.44,0.139,0.11,0,0,0.194,0.12,0,0,,,,,,,,,,,,,0.167,0.08,0,0,,,,
53151,20100528,-117.19,33.44,0.138,0.1,0,0,0.193,0.11,0,0,,,,,,,,,,,,,0.165,0.07,0,0,,,,
53151,20100529,-117.19,33.44,0.136,0.09,0,0,0.193,0.11,0,0,,,,,,,,,,,,,0.164,0.07,0,0,,,,
53151,20100530,-117.19,33.44,0.136,0.1,0,0,0.192,0.12,0,0,,,,,,,,,,,,,0.164,0.08,0,0,,,,
53151,20100531,-117.19,33.44,0.135,0.12,0,0,0.192,0.13,0,0,,,,,,,,,,,,,0.164,0.1,0,0,,,,
53151,20100601,-117.19,33.44,0.134,0.13,0,0,0.192,0.15,0,0,,,,,,,,,,,,,0.163,0.11,0,0,,,,
53151,20100602,-117.19,33.44,0.133,0.13,0,0,0.191,0.16,0,0,,,,,,,,,,,,,0.162,0.12,0,0,,,,
53151,20100603,-117.19,33.44,0.132,0.14,0,0,0.19,0.17,0,0,,,,,,,,,,,,,0.161,0.13,0,0,,,,
53151,20100604,-117.19,33.44,0.132,0.16,0,0,0.19,0.19,0,0,,,,,,,,,,,,,0.161,0.15,0,0,,,,
53151,20100605,-117.19,33.44,0.131,0.19,0,0,0.189,0.21,0,0,,,,,,,,,,,,,0.16,0.17,0,0,,,,
53151,20100606,-117.19,33.44,0.131,0.21,0,0.018,0.189,0.24,0,0,,,,,,,,,,,,,0.16,0.2,0,0,,,,
53151,20100607,-117.19,33.44,0.131,0.24,0,0.042,0.188,0.27,0,0,,,,,,,,,,,,,0.159,0.23,0,0,,,,
53151,20100608,-117.19,33.44,0.13,0.27,0,0.054,0.188,0.29,0,0,,,,,,,,,,,,,0.159,0.25,0,0,,,,
53151,20100609,-117.19,33.44,0.13,0.29,0,0.054,0.187,0.31,0,0,,,,,,,,,,,,,0.159,0.28,0,0,,,,
53151,20100610,-117.19,33.44,0.13,0.31,0,0.06,0.187,0.33,0,0,,,,,,,,,,,,,0.158,0.29,0,0,,,,
53151,20100611,-117.19,33.44,0.129,0.28,0,0.06,0.186,0.33,0,0,,,,,,,,,,,,,0.157,0.28,0,0,,,,
53151,20100612,-117.19,33.44,0.127,0.24,0,0.06,0.185,0.31,0,0,,,,,,,,,,,,,0.156,0.26,0,0,,,,
53151,20100613,-117.19,33.44,0.126,0.2,0.006,0.042,0.183,0.28,0,0,,,,,,,,,,,,,0.155,0.23,0,0,,,,
53151,20100614,-117.19,33.44,0.125,0.19,0.006,0.03,0.182,0.26,0,0,,,,,,,,,,,,,0.153,0.21,0,0,,,,
53151,20100615,-117.19,33.44,0.124,0.19,0.006,0.101,0.181,0.25,0,0,,,,,,,,,,,,,0.153,0.2,0,0,,,,
53151,20100616,-117.19,33.44,0.124,0.21,0.006,0.137,0.18,0.24,0,0,,,,,,,,,,,,,0.152,0.2,0,0,,,,
53151,20100617,-117.19,33.44,0.124,0.2,0.006,0.131,0.179,0.23,0,0,,,,,,,,,,,,,0.152,0.19,0,0,,,,
53151,20100618,-117.19,33.44,0.123,0.21,0.006,0.131,0.179,0.23,0,0,,,,,,,,,,,,,0.151,0.2,0,0,,,,
53151,20100619,-117.19,33.44,0.123,0.24,0.006,0.131,0.179,0.24,0,0,,,,,,,,,,,,,0.151,0.21,0,0,,,,
53151,20100620,-117.19,33.44,0.124,0.28,0,0.143,0.179,0.26,0,0,,,,,,,,,,,,,0.151,0.24,0,0,,,,
53151,20100621,-117.19,33.44,0.123,0.29,0,0.155,0.178,0.28,0,0,,,,,,,,,,,,,0.151,0.24,0,0,,,,
53151,20100622,-117.19,33.44,0.123,0.27,0,0.077,0.178,0.28,0,0,,,,,,,,,,,,,0.15,0.23,0,0,,,,
53151,20100623,-117.19,33.44,0.122,0.25,0,0.054,0.177,0.27,0,0,,,,,,,,,,,,,0.15,0.22,0,0,,,,
53151,20100624,-117.19,33.44,0.122,0.26,0,0.065,0.177,0.27,0,0,,,,,,,,,,,,,0.149,0.23,0,0,,,,
53151,20100625,-117.19,33.44,0.121,0.26,0,0.077,0.176,0.28,0,0,,,,,,,,,,,,,0.149,0.23,0,0,,,,
53151,20100626,-117.19,33.44,0.121,0.27,0,0.083,0.176,0.28,0,0,,,,,,,,,,,,,0.148,0.24,0,0,,,,
53151,20100627,-117.19,33.44,0.121,0.27,0,0.071,0.175,0.29,0,0,,,,,,,,,,,,,0.148,0.24,0,0,,,,
53151,20100628,-117.19,33.44,0.12,0.26,0,0.054,0.175,0.29,0,0,,,,,,,,,,,,,0.148,0.24,0,0,,,,
53151,20100629,-117.19,33.44,0.12,0.24,0.012,0.054,0.174,0.28,0,0,,,,,,,,,,,,,0.147,0.23,0,0,,,,
53151,20100630,-117.19,33.44,0.119,0.23,0.012,0.048,0.173,0.27,0,0,,,,,,,,,,,,,0.146,0.22,0,0,,,,
53151,20100701,-117.19,33.44,0.119,0.25,0.012,0.125,0.173,0.27,0,0,,,,,,,,,,,,,0.146,0.23,0,0,,,,
53151,20100702,-117.19,33.44,0.119,0.26,0.012,0.155,0.172,0.27,0,0,,,,,,,,,,,,,0.146,0.23,0,0,,,,
53151,20100703,-117.19,33.44,0.119,0.26,0.012,0.161,0.172,0.26,0,0,,,,,,,,,,,,,0.145,0.23,0,0,,,,
53151,20100704,-117.19,33.44,0.119,0.25,0.012,0.173,0.171,0.25,0,0,,,,,,,,,,,,,0.145,0.22,0,0,,,,
53151,20100705,-117.19,33.44,0.118,0.23,0.012,0.167,0.171,0.23,0,0,,,,,,,,,,,,,0.144,0.2,0,0,,,,
53151,20100706,-117.19,33.44,0.118,0.23,0.012,0.161,0.17,0.22,0,0,,,,,,,,,,,,,0.144,0.19,0,0,,,,
53151,20100707,-117.19,33.44,0.117,0.19,0.036,0.155,0.169,0.2,0,0,,,,,,,,,,,,,0.143,0.17,0,0,,,,
53151,20100708,-117.19,33.44,0.116,0.14,0.054,0.071,0.169,0.17,0,0,,,,,,,,,,,,,0.142,0.13,0,0,,,,
53151,20100709,-117.19,33.44,0.115,0.1,0.071,0.03,0.167,0.13,0,0,,,,,,,,,,,,,0.141,0.09,0.006,0,,,,
53151,20100710,-117.19,33.44,0.115,0.09,0.071,0.03,0.167,0.1,0,0,,,,,,,,,,,,,0.141,0.07,0.006,0,,,,
53151,20100711,-117.19,33.44,0.115,0.09,0.071,0.024,0.166,0.08,0,0,,,,,,,,,,,,,0.141,0.07,0.006,0,,,,
53151,20100712,-117.19,33.44,0.115,0.08,0.077,0.03,0.166,0.07,0,0,,,,,,,,,,,,,0.14,0.05,0.006,0,,,,
53151,20100713,-117.19,33.44,0.115,0.13,0.065,0.101,0.165,0.07,0,0,,,,,,,,,,,,,0.14,0.07,0.006,0,,,,
53151,20100714,-117.19,33.44,0.116,0.18,0.042,0.19,0.165,0.09,0,0,,,,,,,,,,,,,0.141,0.1,0.006,0,,,,
53151,20100715,-117.19,33.44,0.116,0.25,0.024,0.31,0.166,0.12,0,0,,,,,,,,,,,,,0.141,0.15,0.006,0.006,,,,
53151,20100716,-117.19,33.44,0.117,0.3,0.006,0.399,0.166,0.15,0,0,,,,,,,,,,,,,0.142,0.18,0,0.012,,,,
53151,20100717,-117.19,33.44,0.117,0.36,0.006,0.53,0.167,0.16,0,0,,,,,,,,,,,,,0.142,0.22,0,0.089,,,,
53151,20100718,-117.19,33.44,0.118,0.41,0.006,0.661,0.167,0.18,0,0,,,,,,,,,,,,,0.142,0.25,0,0.137,,,,
53151,20100719,-117.19,33.44,0.118,0.44,0,0.708,0.167,0.2,0,0,,,,,,,,,,,,,0.143,0.27,0,0.137,,,,
53151,20100720,-117.19,33.44,0.118,0.42,0,0.649,0.167,0.2,0,0,,,,,,,,,,,,,0.142,0.26,0,0.137,,,,
53151,20100721,-117.19,33.44,0.117,0.39,0,0.565,0.166,0.18,0,0,,,,,,,,,,,,,0.142,0.24,0,0.137,,,,
53151,20100722,-117.19,33.44,0.116,0.31,0.018,0.44,0.166,0.14,0,0,,,,,,,,,,,,,0.141,0.18,0,0.131,,,,
53151,20100723,-117.19,33.44,0.116,0.25,0.018,0.357,0.165,0.1,0,0,,,,,,,,,,,,,0.14,0.13,0,0.125,,,,
53151,20100724,-117.19,33.44,0.114,0.15,0.018,0.214,0.164,0.06,0,0,,,,,,,,,,,,,0.139,0.07,0,0.048,,,,
53151,20100725,-117.19,33.44,0.113,0.07,0.018,0.077,0.163,0.01,0,0,,,,,,,,,,,,,0.138,0.01,0,0,,,,
53151,20100726,-117.19,33.44,0.113,0.03,0.018,0.024,0.162,-0.03,0,0,,,,,,,,,,,,,0.137,-0.04,0,0,,,,
53151,20100727,-117.19,33.44,0.112,-0.02,0.036,0.012,0.161,-0.07,0,0,,,,,,,,,,,,,0.136,-0.08,0.006,0,,,,
53151,20100728,-117.19,33.44,0.111,-0.08,0.071,0.006,0.16,-0.11,0.018,0,,,,,,,,,,,,,0.136,-0.13,0.036,0,,,,
53151,20100729,-117.19,33.44,0.111,-0.08,0.054,0.006,0.159,-0.14,0.018,0,,,,,,,,,,,,,0.135,-0.15,0.036,0,,,,
53151,20100730,-117.19,33.44,0.111,-0.08,0.054,0,0.159,-0.16,0.018,0,,,,,,,,,,,,,0.135,-0.16,0.036,0,,,,
53151,20100731,-117.19,33.44,0.111,-0.09,0.054,0,0.159,-0.18,0.018,0,,,,,,,,,,,,,0.135,-0.17,0.036,0,,,,
53151,20100801,-117.19,33.44,0.111,-0.11,0.054,0,0.158,-0.2,0.018,0,,,,,,,,,,,,,0.135,-0.19,0.036,0,,,,
53151,20100802,-117.19,33.44,0.111,-0.12,0.054,0,0.158,-0.21,0.018,0,,,,,,,,,,,,,0.134,-0.2,0.036,0,,,,
53151,20100803,-117.19,33.44,0.111,-0.12,0.036,0,0.158,-0.23,0.018,0,,,,,,,,,,,,,0.134,-0.2,0.03,0,,,,
53151,20100804,-117.19,33.44,0.111,-0.1,0,0,0.158,-0.22,0,0,,,,,,,,,,,,,0.134,-0.19,0,0,,,,
53151,20100805,-117.19,33.44,0.111,-0.11,0,0,0.158,-0.23,0,0,,,,,,,,,,,,,0.134,-0.2,0,0,,,,
53151,20100806,-117.19,33.44,0.11,-0.13,0.006,0,0.157,-0.24,0.018,0,,,,,,,,,,,,,0.134,-0.2,0.012,0,,,,
53151,20100807,-117.19,33.44,0.11,-0.15,0.012,0,0.157,-0.25,0.03,0,,,,,,,,,,,,,0.134,-0.21,0.018,0,,,,
53151,20100808,-117.19,33.44,0.11,-0.17,0.036,0,0.157,-0.26,0.048,0,,,,,,,,,,,,,0.133,-0.22,0.06,0,,,,
53151,20100809,-117.19,33.44,0.109,-0.19,0.083,0,0.157,-0.27,0.077,0,,,,,,,,,,,,,0.133,-0.24,0.113,0,,,,
53151,20100810,-117.19,33.44,0.109,-0.22,0.155,0,0.156,-0.29,0.167,0,,,,,,,,,,,,,0.133,-0.26,0.214,0,,,,
53151,20100811,-117.19,33.44,0.109,-0.25,0.22,0,0.156,-0.31,0.274,0,,,,,,,,,,,,,0.132,-0.28,0.292,0,,,,
53151,20100812,-117.19,33.44,0.108,-0.27,0.256,0,0.155,-0.33,0.333,0,,,,,,,,,,,,,0.132,-0.29,0.351,0,,,,
53151,20100813,-117.19,33.44,0.108,-0.29,0.333,0,0.155,-0.35,0.429,0,,,,,,,,,,,,,0.132,-0.31,0.44,0,,,,
53151,20100814,-117.19,33.44,0.108,-0.31,0.399,0,0.155,-0.37,0.554,0,,,,,,,,,,,,,0.131,-0.33,0.542,0,,,,
53151,20100815,-117.19,33.44,0.108,-0.32,0.435,0,0.154,-0.39,0.679,0,,,,,,,,,,,,,0.131,-0.35,0.595,0,,,,
53151,20100816,-117.19,33.44,0.108,-0.31,0.417,0,0.154,-0.41,0.792,0,,,,,,,,,,,,,0.131,-0.36,0.619,0,,,,
53151,20100817,-117.19,33.44,0.108,-0.28,0.345,0,0.154,-0.41,0.78,0,,,,,,,,,,,,,0.131,-0.35,0.524,0,,,,
53151,20100818,-117.19,33.44,0.108,-0.22,0.28,0,0.154,-0.39,0.679,0,,,,,,,,,,,,,0.131,-0.31,0.446,0,,,,
53151,20100819,-117.19,33.44,0.109,-0.16,0.244,0.006,0.155,-0.37,0.619,0,,,,,,,,,,,,,0.132,-0.28,0.387,0,,,,
53151,20100820,-117.19,33.44,0.109,-0.1,0.161,0.006,0.155,-0.34,0.506,0,,,,,,,,,,,,,0.132,-0.24,0.286,0,,,,
53151,20100821,-117.19,33.44,0.11,-0.06,0.095,0.006,0.155,-0.32,0.369,0,,,,,,,,,,,,,0.132,-0.2,0.179,0,,,,
53151,20100822,-117.19,33.44,0.11,-0.04,0.036,0.006,0.155,-0.29,0.226,0,,,,,,,,,,,,,0.133,-0.18,0.089,0,,,,
53151,20100823,-117.19,33.44,0.11,-0.02,0.012,0.006,0.156,-0.26,0.089,0,,,,,,,,,,,,,0.133,-0.16,0.018,0,,,,
53151,20100824,-117.19,33.44,0.11,-0.01,0.012,0.006,0.156,-0.24,0.012,0,,,,,,,,,,,,,0.133,-0.15,0.012,0,,,,
53151,20100825,-117.19,33.44,0.109,-0.03,0.012,0.006,0.155,-0.23,0.006,0,,,,,,,,,,,,,0.132,-0.16,0.012,0,,,,
53151,20100826,-117.19,33.44,0.109,-0.08,0.036,0,0.155,-0.23,0.012,0,,,,,,,,,,,,,0.132,-0.18,0.042,0,,,,
53151,20100827,-117.19,33.44,0.109,-0.08,0.036,0,0.155,-0.23,0.012,0,,,,,,,,,,,,,0.132,-0.18,0.042,0,,,,
53151,20100828,-117.19,33.44,0.108,-0.1,0.042,0,0.155,-0.23,0.024,0,,,,,,,,,,,,,0.131,-0.19,0.042,0,,,,
53151,20100829,-117.19,33.44,0.108,-0.14,0.155,0,0.154,-0.24,0.095,0,,,,,,,,,,,,,0.131,-0.22,0.143,0,,,,
53151,20100830,-117.19,33.44,0.107,-0.2,0.28,0,0.153,-0.27,0.22,0,,,,,,,,,,,,,0.13,-0.26,0.28,0,,,,
53151,20100831,-117.19,33.44,0.106,-0.26,0.411,0,0.153,-0.32,0.357,0,,,,,,,,,,,,,0.129,-0.31,0.423,0,,,,
53151,20100901,-117.19,33.44,0.105,-0.32,0.524,0,0.152,-0.37,0.5,0,,,,,,,,,,,,,0.128,-0.36,0.565,0,,,,
53151,20100902,-117.19,33.44,0.105,-0.36,0.571,0,0.151,-0.41,0.637,0,,,,,,,,,,,,,0.128,-0.4,0.673,0,,,,
53151,20100903,-117.19,33.44,0.104,-0.4,0.613,0,0.15,-0.45,0.762,0,,,,,,,,,,,,,0.127,-0.44,0.744,0,,,,
53151,20100904,-117.19,33.44,0.104,-0.38,0.613,0,0.15,-0.47,0.821,0,,,,,,,,,,,,,0.127,-0.44,0.75,0,,,,
53151,20100905,-117.19,33.44,0.104,-0.32,0.5,0,0.15,-0.46,0.768,0,,,,,,,,,,,,,0.127,-0.4,0.643,0,,,,
53151,20100906,-117.19,33.44,0.104,-0.28,0.375,0,0.149,-0.44,0.685,0,,,,,,,,,,,,,0.127,-0.37,0.506,0,,,,
53151,20100907,-117.19,33.44,0.104,-0.24,0.268,0,0.149,-0.42,0.613,0,,,,,,,,,,,,,0.127,-0.34,0.405,0,,,,
53151,20100908,-117.19,33.44,0.104,-0.26,0.262,0,0.149,-0.41,0.595,0,,,,,,,,,,,,,0.126,-0.34,0.375,0,,,,
53151,20100909,-117.19,33.44,0.103,-0.32,0.304,0,0.148,-0.44,0.595,0,,,,,,,,,,,,,0.126,-0.39,0.381,0,,,,
53151,20100910,-117.19,33.44,0.103,-0.33,0.333,0,0.147,-0.47,0.613,0,,,,,,,,,,,,,0.125,-0.41,0.452,0,,,,
53151,20100911,-117.19,33.44,0.102,-0.37,0.393,0,0.146,-0.49,0.685,0,,,,,,,,,,,,,0.124,-0.44,0.565,0,,,,
53151,20100912,-117.19,33.44,0.101,-0.4,0.423,0,0.146,-0.53,0.798,0,,,,,,,,,,,,,0.123,-0.48,0.685,0,,,,
53151,20100913,-117.19,33.44,0.101,-0.4,0.452,0,0.145,-0.54,0.863,0,,,,,,,,,,,,,0.123,-0.49,0.756,0,,,,
53151,20100914,-117.19,33.44,0.101,-0.38,0.435,0,0.145,-0.54,0.881,0,,,,,,,,,,,,,0.123,-0.49,0.756,0,,,,
53151,20100915,-117.19,33.44,0.102,-0.33,0.345,0,0.145,-0.51,0.815,0,,,,,,,,,,,,,0.123,-0.45,0.696,0,,,,
53151,20100916,-117.19,33.44,0.102,-0.26,0.286,0,0.145,-0.46,0.768,0,,,,,,,,,,,,,0.124,-0.39,0.619,0,,,,
53151,20100917,-117.19,33.44,0.102,-0.26,0.28,0,0.145,-0.42,0.732,0,,,,,,,,,,,,,0.124,-0.37,0.571,0,,,,
53151,20100918,-117.19,33.44,0.102,-0.27,0.31,0,0.145,-0.41,0.732,0,,,,,,,,,,,,,0.124,-0.36,0.595,0,,,,
53151,20100919,-117.19,33.44,0.102,-0.27,0.369,0,0.145,-0.4,0.744,0,,,,,,,,,,,,,0.124,-0.37,0.601,0,,,,
53151,20100920,-117.19,33.44,0.102,-0.29,0.417,0,0.145,-0.4,0.75,0,,,,,,,,,,,,,0.123,-0.37,0.643,0,,,,
53151,20100921,-117.19,33.44,0.101,-0.3,0.458,0,0.145,-0.4,0.792,0,,,,,,,,,,,,,0.123,-0.38,0.72,0,,,,
53151,20100922,-117.19,33.44,0.101,-0.33,0.536,0,0.144,-0.42,0.869,0,,,,,,,,,,,,,0.123,-0.4,0.804,0,,,,
53151,20100923,-117.19,33.44,0.101,-0.34,0.595,0,0.144,-0.44,0.911,0,,,,,,,,,,,,,0.122,-0.42,0.881,0,,,,
53151,20100924,-117.19,33.44,0.101,-0.33,0.584,0,0.143,-0.45,0.946,0,,,,,,,,,,,,,0.122,-0.42,0.922,0,,,,
53151,20100925,-117.19,33.44,0.101,-0.27,0.482,0.012,0.143,-0.44,0.892,0,,,,,,,,,,,,,0.122,-0.38,0.813,0,,,,
53151,20100926,-117.19,33.44,0.101,-0.19,0.392,0.048,0.144,-0.41,0.765,0,,,,,,,,,,,,,0.123,-0.33,0.687,0,,,,
53151,20100927,-117.19,33.44,0.102,-0.11,0.307,0.114,0.144,-0.36,0.645,0,,,,,,,,,,,,,0.123,-0.26,0.566,0,,,,
53151,20100928,-117.19,33.44,0.103,-0.03,0.259,0.169,0.145,-0.29,0.518,0,,,,,,,,,,,,,0.124,-0.18,0.446,0.006,,,,
53151,20100929,-117.19,33.44,0.103,0.02,0.187,0.169,0.146,-0.23,0.38,0,,,,,,,,,,,,,0.124,-0.12,0.325,0.006,,,,
53151,20100930,-117.19,33.44,0.104,0.07,0.072,0.169,0.146,-0.18,0.241,0,,,,,,,,,,,,,0.125,-0.07,0.181,0.006,,,,
53151,20101001,-117.19,33.44,0.103,0.06,0.095,0.167,0.146,-0.18,0.202,0,,,,,,,,,,,,,0.124,-0.08,0.161,0.006,,,,
53151,20101002,-117.19,33.44,0.103,0.07,0.095,0.155,0.145,-0.19,0.232,0,,,,,,,,,,,,,0.124,-0.06,0.125,0.006,,,,
53151,20101003,-117.19,33.44,0.103,0.07,0.095,0.119,0.145,-0.2,0.22,0,,,,,,,,,,,,,0.124,-0.05,0.125,0.006,,,,
53151,20101004,-117.19,33.44,0.103,0.05,0.095,0.054,0.145,-0.23,0.226,0,,,,,,,,,,,,,0.124,-0.07,0.125,0.006,,,,
53151,20101005,-117.19,33.44,0.102,-0.02,0.173,0,0.143,-0.33,0.327,0,,,,,,,,,,,,,0.123,-0.15,0.232,0,,,,
53151,20101006,-117.19,33.44,0.101,-0.06,0.232,0,0.141,-0.44,0.47,0,,,,,,,,,,,,,0.121,-0.22,0.357,0,,,,
53151,20101007,-117.19,33.44,0.111,0.3,0.232,0.119,0.142,-0.4,0.5,0.101,,,,,,,,,,,,,0.126,0.03,0.381,0.119,,,,